SL-16 DEB

Satellite information

Favourite Embed

Satellite Type and Status

DEBRISIN ORBIT

Key statistics

Satellite SL-16 DEB at a glance.

Uptime

9899

Days in orbit

Revolutions

≈ 13.7

Per day

Orbit

LEO

Low Earth Orbit

Inclination

71.0

Latest

Satellite identification and parameters

Extended collection of information and parameters for SL-16 DEB.

Object identification

Identified? True

Debris? True

Object name: SL-16 DEB

International designator: 1998-045D

Object number (NORAD): 25410

Object ID (CCSDS): 25410

Country: COMMONWEALTH OF INDEPENDENT STATES (CIS)

Current information (Y/N): Y

RCS size: SMALL

Orbital parameters

Period: 104.997 minutes

Inclination: 70.9772 deg

SMA: 7372.43 km

Apoapsis: 1147.713 km

Periapsis: 840.877 km

RAAN: 242.9236 deg

Eccentricy: 0.02080969

Argument of periapsis: 187.8988 deg

Mean anomaly: 325.2244 deg

Mean motion: 13.71471584 rev/day

Mean motion (dot): 0.00000155 rev/day2

B* drag term: 0.00018862231 1/REarth

Two-line elements (TLE)

Creation date: Sept. 2, 2025, 11:42 p.m.

Reference frame: TEME

Reference center: EARTH

Epoch: Sept. 2, 2025, 10:05 a.m. UTC

TLE line 0: 0 SL-16 DEB

TLE line 1: 1 25410U 98045D 25245.42044469 .00000155 00000-0 18862-3 0 9998

TLE line 2: 2 25410 70.9772 242.9236 0208097 187.8988 325.2244 13.71471584355533

Live tracking on map

Real-time ground track for satellite SL-16 DEB.

In-orbit conjunctions

A list of the most updated potential collisions computed for object SL-16 DEB.

Target Orbit TCA Probability of collision Miss distance Type
COSMOS 2310 LEO 2024-09-02 12:39:15 0.0001047026 851.0 (m) PAYLOAD
SURFSAT SSO 2024-06-18 03:51:37 0.0002807671 85.0 (m) PAYLOAD

Associated space launch

Second generation ELING satellite

SL-16 DEB was lifted into orbit during the mission ‘Zenit-2 | Tselina-2 20’, on board a Zenit-2 space rocket.

The launch took place on July 28, 1998, 9:15 a.m. from 45/1.

For more information about the launch, click the button.

Launch to space Zenit-2 | Tselina-2 20
Zenit-2 | Tselina-2 20

Agency: N/A

Status: Launch Successful

Launch date: July 28, 1998, 9:15 a.m. UTC

Rocket: Zenit-2

Launch pad: 45/1

Location: Baikonur Cosmodrome, Republic of Kazakhstan

...

Latest news about this satellite

There are no fresh news available about this satellite. Check back as we update our databases every day.


Newsletter sign-up

Weekly statistics, charts and insights to help you stay on top of the space industry.